Home > Weather > Vaduz > Past weeks

Flag for Liechtenstein Weather for the Past 2 Weeks in Vaduz, Liechtenstein

Now
32 °F

Chilly.


Feels Like: 26 °F
Forecast: 30 / 47 °F
Wind: 6 mph from Southeast

Location: Vaduz

Current Time: Feb 11, 2016 at 10:23:11 AM

Latest Report: Feb 11, 2016 at 9:00 AM


Visibility: N/A

Pressure: 29.90 "Hg

Humidity: 58%

Dew point: 19 °F

Location of VaduzLocation

Historic Weather in Vaduz — Graph

°F

Vaduz Temperature Yesterday

Maximum temperature yesterday: 42 °F (at 4:00 AM)
Minimum temperature yesterday: 38 °F (at 9:00 PM)
Average temperature yesterday: 40 °F

High & Low Weather Summary for the Past Weeks

 TemperatureHumidityPressure
High62 °F (Feb 6, 2:00 PM)96% (Jan 31, 3:00 AM)30.53 "Hg (Jan 31, 3:00 AM)
Low32 °F (Jan 30, 7:00 AM)24% (Feb 6, 4:00 PM)29.29 "Hg (Feb 9, 6:00 PM)
Average46 °F64%30.12 "Hg
* Reported Jan 27 8:00 AM — Feb 11 8:00 AM, Vaduz, Weather by CustomWeather, © 2016

Note: Actual official high and low records may vary slightly from our data, if they occured in-between our weather recording intervals... More about our weather records

Advertising

Vaduz Weather History for the Previous 24 Hours

 ConditionsComfort  
Time TempWeatherWind HumidityBarometerVisibility
8:00 AM
Thu, Feb 11
32 °FChilly.5 mph58%29.90 "HgN/A
7:00 AM32 °FChilly.5 mph57%29.89 "HgN/A
6:00 AM33 °FChilly.7 mph59%29.88 "HgN/A
5:00 AM33 °FChilly.6 mph63%29.88 "HgN/A
9:00 PM
Wed, Feb 10
38 °FChilly.5 mph59%29.75 "HgN/A
8:00 PM38 °FChilly.5 mph56%29.73 "HgN/A
7:00 PM38 °FChilly.1 mph60%29.73 "HgN/A
6:00 PM39 °FChilly.7 mph53%29.70 "HgN/A
5:00 PM40 °FQuite cool.7 mph48%29.67 "HgN/A
4:00 PM41 °FPartly sunny.10 mph42%29.64 "Hg7 mi
3:00 PM42 °FQuite cool.8 mph44%29.63 "HgN/A
2:00 PM41 °FQuite cool.12 mph45%29.62 "HgN/A
1:00 PM41 °FFog.2 mph45%29.62 "Hg3 mi
12:00 PM39 °FChilly.3 mph47%29.65 "HgN/A
11:00 AM40 °FQuite cool.6 mph46%29.62 "HgN/A
10:00 AM39 °FLight snow. Overcast.12 mph53%29.60 "Hg2 mi
Weather by CustomWeather, © 2016

See weather overviewHow to use our weather pages